This is the latest recevied weather packets stored in our database for station/object 9M2MIN-2. If no packets are shown the sender has not sent any weather packets the latest 10 day(s).
| Time | Temp. | Humidity | Pressure | Rain* | Wind** | Luminosity | Snow |
|---|---|---|---|---|---|---|---|
| 1777490246 | 30° C | 64% | 1008.2 hPa | - | - | - | - |
| 1777489346 | 30° C | 64% | 1008.4 hPa | - | - | - | - |
| 1777488446 | 30° C | 63% | 1008.2 hPa | - | - | - | - |
| 1777487546 | 30° C | 63% | 1008.5 hPa | - | - | - | - |
| 1777486646 | 30° C | 63% | 1008.5 hPa | - | - | - | - |
| 1777485746 | 30° C | 62% | 1008.7 hPa | - | - | - | - |
| 1777480345 | 30.56° C | 62% | 1009.7 hPa | - | - | - | - |
| 1777479444 | 30.56° C | 62% | 1009.7 hPa | - | - | - | - |
| 1777478544 | 30.56° C | 62% | 1009.9 hPa | - | - | - | - |
| 1777476689 | 30.56° C | 62% | 1010 hPa | - | - | - | - |
| 1777473088 | 30.56° C | 62% | 1009.8 hPa | - | - | - | - |
| 1777472188 | 30.56° C | 62% | 1009.6 hPa | - | - | - | - |
| 1777468587 | 31.11° C | 63% | 1008.6 hPa | - | - | - | - |
| 1777465887 | 31.11° C | 64% | 1007.8 hPa | - | - | - | - |
| 1777464987 | 31.11° C | 65% | 1008 hPa | - | - | - | - |
| 1777464087 | 31.11° C | 65% | 1008.1 hPa | - | - | - | - |
| 1777461386 | 31.11° C | 65% | 1007.1 hPa | - | - | - | - |
| 1777459586 | 31.11° C | 65% | 1006 hPa | - | - | - | - |
| 1777458686 | 31.67° C | 66% | 1006.2 hPa | - | - | - | - |
| 1777457786 | 31.67° C | 66% | 1005.8 hPa | - | - | - | - |
| 1777456885 | 31.67° C | 66% | 1005.9 hPa | - | - | - | - |
| 1777455088 | 32.22° C | 64% | 1005.6 hPa | - | - | - | - |
| 1777454188 | 31.67° C | 63% | 1005.7 hPa | - | - | - | - |
| 1777453288 | 31.67° C | 64% | 1005.6 hPa | - | - | - | - |
| 1777452388 | 31.67° C | 64% | 1005.5 hPa | - | - | - | - |
* Rain since midnight (hover to see other rain measurements)
** Current wind speed in m/s (hover to see current wind gust speed)